Weather in Bogoslovka

Russia / Tambov Oblast     52°31′43″N   41°06′02″E
В апреле 2022 года жителям России запретили посещать сайт meteo.paraplan.net по решению Генеральной прокуратуры. Аудитория сайта уменьшилась в 10 раз. Владельцы сайта не видят смысла в поддержке погодного сервера в таких условиях. Сайт будет закрыт в октябре.
temp.,
°C
wind,
m/s
gust,
m/s
humid.,
%
clouds,
%
prec.,
mm/h
press.,
hPa
HPBL,
m
3 october, mon
mon300:00+17ese71583100 0.6 1001624
03:00+18sse81667100 0.8 999934
06:00+16sse91767100 0.4 998974
09:00+14ssw81192100 5.9 999853
12:00+13ssw8137396 2.1 10031359
15:00+13ssw8165973 2.2 10071722
18:00+12s712735 0.0 1009846
21:00+11s714775 0.0 1011629
4 october, tue
tue400:00+10s614795 0.0 1012462
03:00+10sse614777 0.0 1013411
06:00+9sse6157587 0.0 1013401
09:00+12s612636 0.0 1014619
12:00+16s8125094 0.0 10141821
15:00+16s7125861 0.4 10141572
18:00+14s6137128 1.0 1015553
21:00+11s5128163 2.0 1015344
5 october, wed
wed500:00+11s4887100 0.1 1016236
03:00+11ssw4980100 0.1 1016451
06:00+10ssw51181100 0.0 1017575
09:00+10ssw7117437 0.0 1017862
12:00+12sw7962100 0.1 10171401
15:00+12wsw71067100 0.4 10181307
18:00+9wsw388499 0.4 1019535
21:00+8wsw488473 0.6 1019436
6 october, thu
thu600:00+7wsw498724 0.0 1020326
03:00+6sw389386 0.0 1020208
06:00+7wsw41089100 0.0 1020343
09:00+9w588590 0.1 1020543
12:00+8wsw4791100 0.2 1020437
15:00+10wsw4989100 0.4 1020523
18:00+12wsw51081100 0.0 1020455
21:00+10wsw512897 0.0 1019312
7 october, fri
fri700:00+11wsw61288100 0.0 1019390
03:00+10wsw51192100 0.0 1019322
06:00+9wsw5119620 0.0 1019293
09:00+11wnw598875 0.0 1020438
12:00+12wnw577410 0.0 1021705
15:00+16wnw68530 0.0 10211136
18:00+11wnw38710 0.0 1023145
21:00+9wnw37820 0.0 1024142